Home   Weather   Saint John's   Past weeks

Flag for Antigua and Barbuda Past Weather in Saint John's, Antigua and Barbuda — Yesterday and Last 2 Weeks

Now
84 °F

Scattered clouds.


Feels Like: 92 °F
Forecast: N/A
Wind: 14 mph from East

Location: Vc Bird International Antigua Airport

Current Time: Aug 18, 2017 at 6:07:53 pm

Latest Report: Aug 18, 2017 at 5:00 pm


Visibility: N/A

Pressure: 29.86 "Hg

Humidity: 74%

Dew Point: 75 °F

Location of Saint John'sLocation

Past Weather in Saint John's — Graph

°F

Saint John's Temperature Yesterday

Maximum temperature yesterday: 88 °F (at 1:00 pm)
Minimum temperature yesterday: 81 °F (at 2:00 am)
Average temperature yesterday: 84 °F

High & Low Weather Summary for the Past Weeks

 TemperatureHumidityPressure
High90 °F (Aug 12, 2:00 pm)94% (Aug 14, 12:00 pm)30.09 "Hg (Aug 14, 12:00 pm)
Low73 °F (Aug 4, 6:25 am)59% (Aug 10, 2:00 pm)29.86 "Hg (Aug 18, 1:00 pm)
Average83 °F77%29.98 "Hg
* Reported Aug 3 4:00 pm — Aug 18 4:00 pm, Saint John's. Weather by CustomWeather, © 2017

Note: Actual official high and low records may vary slightly from our data, if they occured in-between our weather recording intervals... More about our weather records

Advertising

Saint John's Weather History for the Previous 24 Hours

Scroll right to see more
 ConditionsComfort  
Time TempWeatherWind HumidityBarometerVisibility
4:00 pm
Fri, Aug 18
86 °FPartly sunny.14 mph75%29.86 "HgN/A
3:00 pm84 °FSprinkles. Scattered clouds.16 mph79%29.86 "HgN/A
2:00 pm84 °FPartly sunny.16 mph79%29.86 "HgN/A
1:00 pm84 °FScattered clouds.17 mph74%29.86 "HgN/A
12:00 pm84 °FSprinkles. Scattered clouds.18 mph79%29.89 "HgN/A
11:00 am84 °FScattered clouds.16 mph79%29.89 "HgN/A
10:06 am81 °FScattered showers. Partly sunny.9 mph89%29.92 "HgN/A
10:00 am79 °FRain showers. Broken clouds.18 mph89%29.92 "Hg5 mi
9:47 am82 °FRain showers. Partly sunny.21 mph79%29.92 "Hg1 mi
9:00 am82 °FScattered showers. Broken clouds.14 mph84%29.92 "HgN/A
8:00 am79 °FSprinkles. Broken clouds.14 mph89%29.92 "Hg4 mi
7:00 am82 °FScattered clouds.15 mph79%29.89 "HgN/A
6:00 am81 °FScattered clouds.16 mph79%29.89 "HgN/A
5:00 am79 °FPartly cloudy.14 mph89%29.89 "HgN/A
4:00 am82 °FSprinkles. Passing clouds.12 mph79%29.89 "HgN/A
3:00 am82 °FPassing clouds.15 mph74%29.89 "HgN/A
2:00 am82 °FPassing clouds.15 mph74%29.89 "HgN/A
1:00 am82 °FPassing clouds.16 mph74%29.92 "HgN/A
12:00 am82 °FPassing clouds.15 mph74%29.95 "HgN/A
11:00 pm
Thu, Aug 17
82 °FPassing clouds.16 mph74%29.95 "HgN/A
10:00 pm82 °FPassing clouds.14 mph74%29.95 "HgN/A
9:00 pm82 °FPassing clouds.15 mph74%29.95 "HgN/A
8:00 pm82 °FPassing clouds.14 mph74%29.92 "HgN/A
7:00 pm82 °FPassing clouds.13 mph79%29.92 "HgN/A
6:00 pm84 °FScattered clouds.10 mph74%29.92 "HgN/A
Weather by CustomWeather, © 2017

See weather overviewHow to use our weather pages